SCP
0 0 0 0 0 0 0 0 0 0 0 0 0 0 0 0 0 0 0 0 0 0 0 0 0 0 0 0 0 0 0 0 0 0 0 0 0 0 0 0 0 0 0
0 0 0 0 0 0 0 0 0 0 0 0 0 0 0 0 0 0 0 0 0 0 0 0 0 0 0 0 0 0 0 0 0 0 0 0 0 0 0 0 0 0 0
0 0 0 0 0 0 0 0 0 0 0 0 0 0 0 0 0 0 0 0 0 0 0 0 0 0 0 0 0 0 0 0 0 0 0 0 0 0 0 0 0 0 0
0 0 0 0 0 0 0 0 0 0 0 0 0 0 0 0 0 0 0 0 0 0 0 0 0 0 0 0 0 0 0 0 0 0 0 0 0 0 0 0 0 0 0
0 0 0 0 0 0 0 0 0 0 0 0 0 0 0 0 0 0 0 0 0 0 0 0 0 0 0 0 0 0 0 0 0 0 0 0 0 0 0 0 0 0 0
0 0 0 0 0 0 0 0 0 0 0 0 0 0 0 0 0 0 0 0 0 0 0 0 0 0 0 0 0 0 0 0 0 0 0 0 0 0 0 0 0 0 0
0 0 0 0 0 0 0 0 0 0 0 0 0 0 0 0 0 0 0 0 0 0 0 0 0 0 0 0 0 0 0 0 0 0 0 0 0 0 0 0 0 0 0
0 0 0 0 0 0 0 0 0 0 0 0 0 0 0 0 0 0 0 0 0 0 0 0 0 0 0 0 0 0 0 0 0 0 0 0 0 0 0 0 0 0 0
0 0 0 0 0 0 0 0 0 0 0 0 0 0 0 0 0 0 0 0 0 0 0 0 0 0 0 0 0 0 0 0 0 0 0 0 0 0 0 0 0 0 0
0 0 0 0 0 0 0 0 0 0 0 0 0 0 0 0 0 0 0 0 0 0 0 0 0 0 0 0 0 0 0 0 0 0 0 0 0 0 0 0 0 0 0
0 0 0 0 0 0 0 0 0 0 0 0 0 0 0 0 0 0 0 0 0 0 0 0 0 0 0 0 0 0 0 0 0 0 0 0 0 0 0 0 0 0 0
0 0 0 0 0 0 0 0 0 0 0 0 0 0 0 0 0 0 0 0 0 0 0 0 0 0 0 0 0 0 0 0 0 0 0 0 0 0 0 0 0 0 0
0 0 0 0 0 0 0 0 0 0 0 0 0 0 0 0 0 0 0 0 0 0 0 0 0 0 0 0 0 0 0 0 0 0 0 0 0 0 0 0 0 0 0
1 1 1 0 0 0 0 0 0 0 0 0 0 0 0 0 0 0 0 0 0 0 0 0 0 0 0 0 0 0 0 0 0 0 0 0 0 0 0 0 0 0 0
1 1 1 0 0 0 0 0 0 0 0 0 0 0 0 0 0 0 0 0 0 0 0 0 0 0 0 0 0 0 0 0 0 0 0 0 0 0 0 0 0 0 0
1 1 1 0 0 0 0 0 0 0 0 0 0 0 0 0 0 0 0 0 0 0 0 0 0 0 0 0 0 0 0 0 0 0 0 0 0 0 0 0 0 0 0
1 1 1 0 0 0 0 0 0 0 0 0 0 0 0 0 0 0 0 0 0 0 0 0 0 0 0 0 0 0 0 0 0 0 0 0 0 0 0 0 0 0 0
1 1 1 0 0 0 0 0 0 0 0 0 0 0 0 0 0 0 0 0 0 0 0 0 0 0 0 0 0 0 0 0 0 0 0 0 0 0 0 0 0 0 0
1 1 1 0 0 0 0 0 0 0 0 0 0 0 0 0 0 0 0 0 0 0 0 0 0 0 0 0 0 0 0 0 0 0 0 0 0 0 0 0 0 0 0
1 1 1 1 0 0 0 0 0 0 0 0 0 0 0 0 0 0 0 0 0 0 0 0 0 0 0 0 0 0 0 0 0 0 0 0 0 0 0 0 0 0 0
1 1 1 1 0 0 0 0 0 0 0 0 0 0 0 0 0 0 0 0 0 0 0 0 0 0 0 0 0 0 0 0 0 0 0 0 0 0 0 0 0 0 0
1 1 1 1 0 0 0 0 0 0 0 0 0 0 0 0 0 0 0 0 0 0 0 0 0 0 0 0 0 0 0 0 0 0 0 0 0 0 0 0 0 0 0
1 1 1 1 0 0 0 0 0 0 0 0 0 0 0 0 0 0 0 0 0 0 0 0 0 0 0 0 0 0 0 0 0 0 0 0 0 0 0 0 0 0 0
1 1 1 1 0 0 0 0 0 0 0 0 0 0 0 0 0 0 0 0 0 0 0 0 0 0 0 0 0 0 0 0 0 0 0 0 0 0 0 0 0 0 0
1 1 1 1 1 0 0 0 0 0 0 0 0 0 0 0 0 0 0 0 0 0 0 0 0 0 0 0 0 0 0 0 0 0 0 0 0 0 0 0 0 0 0
1 1 1 1 1 1 0 0 0 0 0 0 0 0 0 0 0 0 0 0 0 0 0 0 0 0 0 0 0 0 0 0 0 0 0 0 0 0 0 0 0 0 0
Wind_Speed
3 4 3 2 2 2 2 1 1 2 1 1 1 3 3 4 6 6 5 10 10 9 8 8 7 7 7 6 6 6 5 5 5 5 5 6 7 6 6 6 6 5 5
3 3 3 2 1 2 1 1 2 1 1 1 1 2 2 3 5 7 7 7 9 9 8 8 7 6 6 6 6 5 5 5 5 4 5 6 6 6 6 6 5 5 5
4 3 3 2 2 2 2 1 2 1 2 2 2 2 1 2 3 5 6 5 6 8 8 8 7 6 6 5 5 5 4 4 4 4 5 5 6 6 6 6 6 5 5
4 3 3 2 3 2 2 1 1 1 1 1 1 1 2 2 2 3 4 5 4 5 7 8 8 7 6 6 5 5 5 4 4 4 5 5 6 6 6 6 6 6 6
4 3 2 3 2 2 2 2 2 1 1 0 1 2 2 2 2 3 4 5 5 5 5 7 8 7 7 6 6 6 5 5 4 4 4 5 6 6 6 6 6 6 6
4 2 4 3 2 2 2 2 2 1 0 1 1 2 2 2 2 2 3 4 5 6 6 6 5 5 7 6 6 6 5 5 5 4 4 4 4 6 7 7 7 7 7
4 2 3 3 1 2 2 2 2 2 2 1 1 1 2 3 3 3 2 3 4 4 5 5 4 3 4 6 6 6 5 5 5 4 3 2 2 2 4 6 7 8 8
4 4 3 3 3 2 2 2 1 1 2 2 1 1 1 1 1 3 3 3 4 3 4 5 5 4 3 3 5 7 6 5 5 4 4 3 2 2 3 4 6 7 8
5 3 4 2 3 3 3 2 2 2 1 1 1 1 1 1 2 1 2 3 3 2 2 3 5 4 4 4 4 5 6 5 5 5 4 3 3 2 2 3 4 5 7
5 4 4 3 2 2 4 3 3 1 1 1 1 1 2 1 1 2 1 2 3 3 2 2 4 4 4 4 5 7 7 6 5 4 4 4 4 3 3 4 4 4 5
5 5 5 4 2 2 3 1 3 0 1 1 1 1 2 2 2 2 2 3 2 3 3 2 2 3 3 4 4 6 7 6 4 4 4 4 4 5 5 5 6 6 6
5 6 6 4 3 2 3 2 2 1 1 2 2 1 0 0 1 1 2 3 3 3 3 2 2 2 2 3 5 9 8 7 5 4 4 4 4 5 5 6 7 7 8
5 6 6 5 3 3 3 3 2 1 1 1 2 2 2 1 1 1 1 1 2 2 2 2 2 2 2 4 5 8 8 7 6 5 5 4 4 5 5 6 7 8 8
5 7 6 5 4 4 4 3 2 2 2 0 1 2 2 2 2 2 1 1 0 1 2 3 2 3 2 4 5 7 5 8 7 6 6 5 5 5 6 6 6 7 7
7 8 7 6 5 4 3 4 2 2 3 2 1 1 1 0 1 2 2 1 1 1 1 2 2 2 2 4 6 4 3 8 9 8 8 8 7 7 7 7 7 7 7
7 8 7 6 6 5 4 4 3 3 3 2 1 1 1 2 1 1 1 1 1 1 1 1 1 3 2 2 5 2 2 8 11 11 11 10 10 9 9 9 8 8 8
8 8 7 7 6 6 5 4 3 5 4 3 2 2 1 2 2 2 1 0 1 1 1 1 1 2 2 1 1 2 3 4 6 12 13 13 12 12 11 11 10 10 10
7 8 7 7 7 6 5 5 4 5 5 4 3 2 3 2 1 2 2 2 1 1 0 1 1 1 2 3 3 3 5 5 4 8 13 14 13 13 13 13 12 12 12
7 8 7 7 6 6 6 5 4 4 5 4 4 3 3 2 2 1 1 2 1 1 1 1 2 2 2 2 3 4 5 4 6 6 9 12 14 15 15 15 14 14 13
8 8 7 7 6 6 6 6 5 4 4 4 4 4 3 3 3 3 2 2 2 2 1 2 3 2 2 2 2 2 3 3 4 6 4 5 10 14 16 16 16 15 15
10 8 7 7 7 6 7 7 6 6 5 4 4 4 4 4 3 2 2 0 1 1 2 2 3 2 1 1 1 2 3 3 3 3 3 3 4 5 7 12 15 16 16
8 8 8 8 8 8 9 11 7 5 5 6 5 5 5 6 6 6 5 3 2 3 3 2 3 3 2 2 1 2 3 3 4 3 3 5 4 4 5 5 9 13 15
8 8 8 7 7 6 10 11 10 4 4 4 5 5 6 7 9 7 8 8 7 8 8 4 4 5 4 3 2 4 4 4 5 5 5 6 5 5 5 7 8 11 13
7 7 7 7 7 8 12 12 10 6 4 4 5 5 5 5 5 5 5 6 6 7 9 8 7 7 6 3 3 4 5 6 6 6 5 6 5 5 6 4 8 10 12
7 7 7 7 7 8 13 13 11 6 5 6 6 6 6 6 6 6 5 5 5 5 8 10 10 9 9 9 6 3 4 5 6 5 4 4 5 5 4 5 6 10 11
7 7 7 7 8 7 13 14 13 6 6 6 6 7 8 7 7 8 6 5 6 5 5 5 6 8 9 10 11 8 6 6 6 5 4 3 4 4 5 4 4 4 6
Wind_Direction
125 122 129 159 166 150 171 173 112 96 74 53 73 87 81 88 111 119 132 145 143 146 148 148 149 149 151 151 153 156 157 156 156 156 157 156 155 154 154 153 150 150 148
115 118 133 149 130 134 120 128 124 131 132 104 82 88 92 106 112 131 142 150 152 153 154 154 154 154 159 163 162 164 169 166 163 167 171 169 167 169 170 170 169 166 164
134 147 148 167 138 120 124 122 129 159 184 163 137 122 101 97 111 128 145 149 155 160 159 158 159 162 163 167 170 169 171 175 174 182 181 179 178 179 182 183 181 181 183
149 163 151 148 135 146 145 127 194 172 134 134 137 139 117 122 133 142 144 150 150 151 164 168 166 169 168 168 170 172 172 173 179 190 192 191 191 191 190 190 190 190 193
158 162 130 115 161 150 153 177 135 100 123 155 160 154 158 153 148 158 144 148 145 147 152 169 171 172 175 172 166 168 171 175 183 194 201 206 204 203 205 206 203 202 204
157 164 135 142 188 140 113 84 97 99 170 235 237 147 157 151 163 151 160 148 151 156 152 156 162 176 177 170 169 172 176 180 184 190 202 213 217 213 213 215 214 211 212
155 176 125 151 153 113 124 143 137 176 211 201 175 154 171 163 156 149 150 141 143 144 145 150 161 160 169 178 180 179 181 184 185 182 187 195 212 225 219 220 221 219 219
164 174 138 165 127 122 136 134 116 251 218 166 181 165 147 136 208 161 151 157 146 149 157 165 154 159 165 157 176 178 180 184 188 187 191 202 211 219 227 228 229 228 225
168 146 144 143 142 165 152 177 184 218 260 168 162 89 115 163 159 130 169 130 130 137 160 157 161 158 160 149 159 171 172 175 184 194 199 199 198 209 230 240 237 238 233
161 155 152 141 166 149 143 199 181 210 232 242 170 146 148 136 139 145 158 146 161 162 166 174 156 161 157 145 151 154 162 170 181 197 211 218 222 226 237 248 253 252 247
166 163 156 150 164 148 141 132 112 353 307 300 288 187 181 175 218 167 166 168 178 174 177 173 151 162 156 146 144 152 158 168 181 204 224 237 242 242 246 257 266 269 268
175 170 158 150 168 151 139 133 125 168 352 3 349 340 99 198 241 225 159 173 178 171 165 147 160 167 162 152 154 153 166 174 186 202 224 241 252 255 258 262 267 272 274
173 169 157 157 165 143 142 138 146 150 143 23 356 338 0 0 31 18 48 168 149 156 152 162 176 165 159 118 133 158 172 178 188 202 220 238 253 260 266 269 272 274 275
165 153 148 161 155 157 162 145 164 169 135 132 286 4 340 354 4 8 18 31 273 197 168 178 162 148 127 125 151 177 176 186 195 207 220 233 245 252 260 267 271 273 273
154 153 158 162 160 163 150 148 182 155 134 187 211 202 292 323 350 359 11 20 1 321 192 155 135 135 129 124 161 197 176 194 205 215 223 228 234 241 249 256 261 265 267
149 154 160 161 161 160 159 170 174 147 151 176 196 131 342 338 11 4 353 354 353 340 350 104 157 140 126 126 168 234 234 198 211 220 223 225 230 236 242 248 255 259 262
154 158 163 164 163 166 169 178 184 157 174 191 204 163 164 335 355 340 338 340 322 358 351 334 94 108 123 127 164 253 253 224 218 222 224 225 228 233 236 241 247 252 256
161 162 165 166 172 173 170 179 202 171 176 188 202 184 185 199 190 334 343 339 356 47 22 310 326 197 192 194 209 239 262 263 254 230 222 223 226 232 236 241 244 247 249
170 170 169 173 181 171 172 185 203 189 185 187 186 196 199 195 195 230 273 303 310 284 196 258 270 254 218 217 216 244 262 265 279 263 226 223 228 233 237 240 242 244 245
175 174 174 178 181 178 178 186 195 204 198 191 187 197 203 205 195 215 232 237 275 294 290 268 266 257 237 227 206 252 278 266 271 283 265 238 231 233 238 241 242 242 243
182 176 176 181 184 187 190 187 191 198 198 201 198 200 211 204 178 195 236 205 278 276 273 264 266 268 261 278 253 267 283 285 275 271 276 275 250 241 242 243 242 242 241
183 177 183 187 192 203 191 183 186 202 187 198 205 208 212 194 191 200 216 218 223 256 278 289 287 290 293 300 305 296 297 306 300 301 312 293 284 269 255 244 236 232 234
184 183 186 190 196 189 169 170 181 198 202 204 210 213 232 227 198 201 213 225 235 239 232 246 268 277 286 294 307 304 297 291 282 285 292 283 279 277 275 283 263 240 235
184 186 190 195 196 188 175 175 180 200 219 224 222 220 228 253 224 207 212 212 220 228 223 224 237 251 263 270 269 271 277 279 270 265 259 271 274 272 281 277 267 257 244
186 192 197 200 202 187 179 180 177 199 214 228 234 230 223 227 219 205 215 231 237 244 240 232 228 238 245 253 252 268 272 277 281 279 265 264 273 274 271 269 266 261 256
190 196 202 202 203 188 183 185 185 204 216 222 226 230 231 227 216 200 207 224 241 247 264 264 244 245 246 248 240 229 240 254 268 277 271 274 284 295 289 274 280 281 269